www.pogodaiklimat.ru

Погода и климат >> Архив погоды >> Пакистан >> Peshawar


ПОГОДА в Peshawar

  • Прогноз погоды в Peshawar
  • Монитор погоды в Peshawar
  • Климат города

АРХИВ ПОГОДЫ в Peshawar

Время (UTC), дата Ветер
(напр.,м/с)
 
Видим.   Явления Облачность Т
(С)
Тd
(С)
f
(%)
Тe
(С)
Тes
(С)
Комфортность P
(гПа)
Po
(гПа)
Тmin
(С)
Tmax
(С)
R
(мм)
R24
(мм)
S
(см)
15 11.09 штиль 0 4000 м ясно +31.0 +26.9 79 +48 +48 опасность
перегрева
1002.6 967.1
18 11.09 штиль 0 4000 м ясно +29.0 +24.8 78 +41 +41 опасность
перегрева
1003.3 967.5
21 11.09 штиль 0 4000 м ясно +28.0 +23.7 77 +38 +38 очень
душно
1002.7 966.9
00 12.09 штиль 0 4000 м ясно +27.0 +22.6 77 +36 +36 очень
душно
1005.0 968.8
03 12.09 штиль 0 4000 м мгла ясно +29.0 +24.0 74 +40 +45 очень
душно
1002.9 967.1 +24.1
06 12.09 СЗ 1 4000 м мгла ясно +34.0 +25.7 62 +49 +66 опасность
перегрева
1002.0 966.8
09 12.09 СЗ 1 4000 м мгла ясно +37.0 +23.6 46 +47 +63 опасность
перегрева
998.2 963.4
12 12.09 СВ 1 27 км ясно +36.0 +23.2 48 +46 +49 опасность
перегрева
996.2 961.4 +38.5
15 12.09 штиль 0 4000 м ясно +33.0 +24.6 61 +46 +46 опасность
перегрева
997.6 962.1
18 12.09 штиль 0 4000 м ясно +30.0 +25.1 75 +43 +43 опасность
перегрева
999.6 963.8
21 12.09 штиль 0 4000 м ясно +28.0 +23.7 77 +38 +38 очень
душно
999.1 963.3
00 13.09 штиль 0 4000 м ясно +27.0 +24.1 84 +37 +37 очень
душно
1000.4 964.2
03 13.09 штиль 0 10 км ясно +29.0 +26.2 85 +44 +49 опасность
перегрева
1001.0 965.2 +25.0
06 13.09 штиль 0 10 км ясно +33.5 +25.1 62 +48 +67 опасность
перегрева
1000.7 965.2
09 13.09 штиль 0 10 км ясно +37.0 +22.8 44 +46 +64 опасность
перегрева
997.8 963.0
12 13.09 СЗ 1 10 км ясно +37.0 +26.0 53 +52 +54 опасность
перегрева
996.7 961.9 +38.3
15 13.09 СЗ 1 4000 м ясно +31.5 +25.2 69 +45 +45 опасность
перегрева
999.0 963.5
18 13.09 штиль 0 4000 м ясно +29.0 +24.0 74 +40 +40 очень
душно
1000.0 964.2
21 13.09 штиль 0 4000 м ясно +28.0 +23.7 77 +38 +38 очень
душно
1000.6 964.8
00 14.09 СЗ 1 4000 м ясно +24.0 +19.4 75 +29 +29 душно 1003.7 967.1
03 14.09 СЗ 1 10 км ясно +25.0 +18.8 68 +30 +34 душно 1005.8 969.6 +23.1
06 14.09 СЗ 1 10 км ясно +30.0 +20.3 56 +37 +55 опасность
солнечного
удара
1006.1 970.3
09 14.09 СЗ 1 10 км 1/1 300 м
[Cu hum]
+35.0 +22.0 47 +44 +58 опасность
перегрева
1003.6 968.4
12 14.09 СЗ 1 10 км 6/3 300 м
[Sc As op]
+32.0 +23.4 60 +43 +44 опасность
перегрева
1003.5 968.0 +36.1
15 14.09 штиль 0 4000 м 10/4 300 м
[Cb cap As op Ci fib]
+29.0 +19.9 58 +35 +35 очень
душно
1005.4 969.6
18 14.09 штиль 0 4000 м 5/3 300 м
[Sc Ac trans]
+26.0 +19.9 69 +32 +32 очень
душно
1007.3 971.1
21 14.09 штиль 0 4000 м 6/3 300 м
[Sc Ac trans]
+25.0 +18.8 68 +30 +30 душно 1008.4 972.2
00 15.09 штиль 0 4000 м 8/4 300 м
[Sc Ac trans]
+25.0 +18.8 68 +30 +30 душно 1007.9 971.7
03 15.09 штиль 0 10 км 10/5 300 м
[Sc Ac trans]
+25.0 +17.0 61 +29 +30 душно 1010.2 974.7 +22.1
06 15.09 СЗ 1 4000 м 10/5 300 м
[Sc Ac trans]
+23.0 +18.3 75 +29 +32 очень
душно
1014.4 977.8 2
09 15.09 штиль 0 4000 м 10/5 300 м
[Sc Ac trans]
+26.0 +18.2 62 +31 +34 очень
душно
1011.0 974.8
12 15.09 СЗ 1 4000 м 8/3 300 м
[Sc As op]
+27.0 +17.6 56 +31 +32 душно 1010.1 973.2 +27.5
15 15.09 СВ 1 4000 м ясно +23.5 +17.1 67 +27 +27 душно 1011.0 973.7
18 15.09 штиль 0 4000 м ясно +21.0 +16.0 73 +24 +24 комфорт 1011.9 974.2
21 15.09 штиль 0 4000 м ясно +20.0 +16.7 81 +22 +22 комфорт 1012.2 974.5
00 16.09 штиль 0 4000 м ясно +19.0 +15.6 81 +20 +20 1010.9 972.8
03 16.09 СВ 1 10 км ясно +21.0 +16.9 77 +26 +30 душно 1010.9 973.2 +18.1
06 16.09 СВ 1 10 км ясно +29.0 +16.3 46 +32 +49 душно 1009.1 972.5
09 16.09 СВ 1 10 км ясно +33.0 +16.6 38 +36 +52 опасность
солнечного
удара
1007.1 970.8
12 16.09 штиль 0 10 км ясно +33.0 +16.6 38 +36 +38 очень
душно
1004.7 969.2 +34.5
15 16.09 штиль 0 4000 м ясно +26.5 +17.0 56 +30 +30 душно 1006.4 970.2
18 16.09 штиль 0 4000 м ясно +23.0 +17.4 71 +28 +28 душно 1007.0 970.4
21 16.09 штиль 0 4000 м ясно +20.0 +16.7 81 +22 +22 комфорт 1006.8 969.8
00 17.09 штиль 0 4000 м ясно +20.0 +14.9 72 +22 +22 комфорт 1006.9 969.9
03 17.09 штиль 0 10 км ясно +22.0 +18.0 78 +27 +31 душно 1007.1 970.5 +17.1
06 17.09 штиль 0 10 км ясно +30.0 +17.5 47 +34 +53 опасность
солнечного
удара
1006.9 971.1
09 17.09 штиль 0 10 км ясно +34.5 +17.6 37 +38 +55 опасность
солнечного
удара
1004.3 969.1
12 17.09 ЮВ 1 10 км ясно +35.0 +22.9 50 +45 +47 опасность
перегрева
1002.7 967.5 +36.0
15 17.09 штиль 0 4000 м ясно +28.0 +20.5 64 +35 +35 очень
душно
1003.3 967.5
18 17.09 штиль 0 4000 м ясно +25.0 +20.5 76 +31 +31 очень
душно
1005.4 969.2
21 17.09 штиль 0 4000 м ясно +23.0 +19.9 83 +30 +30 очень
душно
1005.2 968.6
00 18.09 штиль 0 4000 м ясно +21.0 +16.0 73 +24 +24 комфорт 1005.7 968.7
03 18.09 штиль 0 10 км ясно +23.0 +18.3 75 +29 +33 очень
душно
1006.7 970.1 +18.1
06 18.09 СЗ 1 10 км ясно +30.0 +19.4 53 +36 +53 опасность
солнечного
удара
1006.8 971.0
09 18.09 СЗ 1 10 км ясно +35.0 +20.2 42 +41 +57 опасность
перегрева
1003.7 968.6
12 18.09 СЗ 1 10 км ясно +33.0 +17.6 40 +37 +39 очень
душно
1002.6 967.1 +35.7

 

Местоположение метеостанции Peshawar (Пакистан): широта 34.02 долгота 71.58 высота над уровнем моря 360 м.

В архиве по умолчанию представлена погода в Peshawar за последнюю неделю. Архивные данные за месяц целиком и за предыдущие месяцы, начиная с января 2011 года, Вы можете получить, выбрав интересующий диапазон дат из раскрывающегося списка и нажав кнопку "Ввод!".


*Определитесь, кто Вы:
робот инопланетянин человек

Внимание! Время в таблицах - всемирное. Для получения местного времени необходимо прибавить поправку, которая в Peshawar равна 5 ч.

Смотрите также архив погоды в соседних городах и на ближайших метеорологических станциях:

Погода в Risalpur (Пакистан) (37 км)
Погода в Kohat (Пакистан) (52 км)
Погода в Saidu Sharif (Пакистан) (106 км)
Погода в Jalalabad (Афганистан) (112 км)
Погода в Dir (Пакистан) (134 км)
Погода в Parachinar (Пакистан) (139 км)
Погода в Islamabad (Пакистан) (147 км)
Погода в Kakul (Пакистан) (155 км)
Погода в Mianwali (Пакистан) (164 км)
Погода в Murree (Пакистан) (166 км)

Пояснения к столбцам:

Ветер - указаны скорость ветра в м/с - средняя за 10 мин, порывы в срок и между сроками (в фигурных скобках) и направление, откуда дует ветер: С - северный, СВ - северо-восточный, В - восточный, ЮВ - юго-восточный, Ю - южный, ЮЗ - юго-западный, З - западный, СЗ - северо-западный.
Видимость - горизонтальная дальность видимости в метрах или километрах. При видимости от 1 до 10 км при отсутствии осадков обычно наблюдается дымка, при ухудшении видимости до 1 км и менее - туман. В сухую погоду видимость может ухудшаться дымом, пылью или мглою.
Явления - указаны атмосферные явления, наблюдавшиеся в срок или в последний час перед сроком; фигурными скобками обозначены явления, наблюдавшиеся между сроками (за 1-3 часа до срока); квадратными скобками обозначены град или гололедные отложения с указанием их диаметра в мм.
Облачность - указаны через наклонную черту общая и нижняя облачность в баллах и высота нижней границы облаков в метрах; квадратными скобками обозначены формы облаков: Ci - перистые, Cs - перисто-слоистые, Cc - перисто-кучевые, Ac - высококучевые, As - высокослоистые, Sc - слоисто-кучевые, Ns - слоисто-дождевые, Cu - кучевые, Cb - кучево-дождевые. Подробнее классификацию облаков см. в Атласе облаков (PDF).
T - Температура воздуха - температура, измеренная на высоте 2 м над землей.
Td - Температура точки росы - температура, при понижении до которой содержащийся в воздухе водяной пар достигнет насыщения.
f - Относительная влажность воздуха - влажноcть воздуха, измеренная на высоте 2 м над землей.
Te - Эффективная температура - температура, которую ощущает одетый по сезону человек в тени. Характеристика душности погоды. При расчете учитывается влияние влажности воздуха и скорости ветра на теплоощущения человека.
Tes - Эффективная температура на солнце - температура, которую ощущает человек, с поправкой на солнечный нагрев. Характеристика знойности погоды. Зависит от высоты солнца над горизонтом, облачности и скорости ветра. Ночью, в пасмурную погоду, а также при ветре 12 м/с и более поправка равна нулю.
P - Атмосферное давление - приведенное к уровню моря атмосферное давление.
Po - Атмосферное давление - измеренное на уровне метеостанции атмосферное давление.
Tmin - Минимальная температура - минимум температуры воздуха на высоте 2 м над землей.
Tmax - Максимальная температура - максимум температуры воздуха на высоте 2 м над землей.
R - Количество осадков - Количество выпавших осадков за период времени, мм. При наведении курсора мыши на число - период времени, за который выпало указанное количество осадков.
R24 - Количество осадков - Количество выпавших осадков за 24 часа, мм.
S - Снежный покров - Высота снежного покрова, см. При наведении курсора мыши на число - состояние снежного покрова и степень покрытия местности в баллах.